User: anonymous   Login
Location: Knowlton
(51.2333°N, 1.2667°E)
Time: 07:25:08
(UTC+00:00)
Language:

ISS - Orbit

View from above orbital plane
View from above orbital plane
View from above satellite
View from above satellite

Ground track
Ground track

The orbit data is extracted from the following two-line orbital elements,

1 25544U 98067A   21297.87200865  .00004068  00000-0  82553-4 0  9992
2 25544  51.6439  61.4842 0004404 140.4960   3.4198 15.48788699308697
Epoch (UTC): 24 October 2021 20:55:41
Eccentricity: 0.0004404
inclination: 51.6439°
perigee height: 417 km
apogee height: 423 km
right ascension of ascending node: 61.4842°
argument of perigee: 140.4960°
revolutions per day: 15.48788699
mean anomaly at epoch: 3.4198°
orbit number at epoch: 30869

The dashed part of the orbit path shows where the satellite is in the earth's shadow,  

DLR